User: anonymous   Login
Location: Luna
(33.8188°N, 108.9564°W)
Time: 03:04:37
(UTC+00:00)
Language:

SO-50 - Orbit

View from above orbital plane
View from above orbital plane
View from above satellite
View from above satellite

Ground track
Ground track

The orbit data is extracted from the following two-line orbital elements,

1 27607U 02058C   23084.55554225  .00003715  00000-0  52085-3 0  9996
2 27607  64.5553 161.2770 0075685 241.2946 118.0536 14.77007087 89872
Epoch (UTC): 25 March 2023 13:19:58
Eccentricity: 0.0075685
inclination: 64.5553°
perigee height: 585 km
apogee height: 692 km
right ascension of ascending node: 161.2770°
argument of perigee: 241.2946°
revolutions per day: 14.77007087
mean anomaly at epoch: 118.0536°
orbit number at epoch: 8987

The dashed part of the orbit path shows where the satellite is in the earth's shadow,  

DLR